EW8836 Weather Reports


Display with metric or nautical units.
time (UTC)temp
F
wind
direction
speed
MPH
gust
MPH
rain 1hr
in
rain 24hr
in
rain mn
in
humidity
%
barometer
mb
20260903091600 74 329 0.0 3.0 0.00 0.00 0.00 62 1024.2
20260903090101 73 144 1.0 3.0 0.00 0.00 0.00 64 1024.3
20260903084550 71 312 0.0 4.0 0.00 0.00 0.00 67 1024.3
20260903083105 70 269 0.0 2.0 0.00 0.00 0.00 69 1024.3
20260903081543 69 227 0.0 3.0 0.00 0.00 0.00 70 1024.2
20260903080146 67 262 0.0 3.0 0.00 0.00 0.00 74 1024.2
20260903074558 64 246 0.0 2.0 0.00 0.00 0.00 77 1024.2
20260903073108 62 335 0.0 2.0 0.00 0.00 0.00 81 1024.1
20260903071559 59 200 1.0 7.0 0.00 0.00 0.00 85 1024.3
20260903064603 54 254 0.0 2.0 0.00 0.00 0.00 92 1024.0
20260903063103 54 241 0.0 3.0 0.00 0.00 0.00 93 1023.9
20260903061557 52 219 0.0 0.0 0.00 0.00 0.00 94 1023.8
20260903054549 51 254 0.0 1.0 0.00 0.00 0.00 95 1023.7
20260903053108 51 235 0.0 3.0 0.00 0.00 0.00 95 1023.7
20260903051600 51 319 0.0 2.0 0.00 0.00 0.00 94 1023.6
20260903050057 51 217 0.0 1.0 0.00 0.00 0.00 94 1023.5
20260903044604 51 250 0.0 2.0 0.00 0.00 0.00 94 1023.2
20260903043107 51 236 0.0 2.0 0.00 0.00 0.00 93 1023.4
20260903041605 52 250 0.0 1.0 0.00 0.00 0.00 92 1023.3
20260903040050 53 214 0.0 5.0 0.00 0.00 0.00 92 1023.3
20260903034558 52 245 0.0 3.0 0.00 0.00 0.00 93 1023.3
20260903033049 52 240 0.0 1.0 0.00 0.00 0.00 93 1023.2
20260903031550 52 267 0.0 1.0 0.00 0.00 0.00 93 1023.2
20260903030105 52 226 0.0 2.0 0.00 0.00 0.00 93 1023.3
20260903024550 53 250 0.0 1.0 0.00 0.00 0.00 92 1023.1
20260903023055 53 242 0.0 0.0 0.00 0.00 0.00 91 1023.2
20260903021551 53 205 0.0 0.0 0.00 0.00 0.00 91 1023.1
20260903020058 54 220 0.0 1.0 0.00 0.00 0.00 90 1023.2
20260903014605 54 239 0.0 3.0 0.00 0.00 0.00 89 1023.0
20260903013106 55 316 0.0 1.0 0.00 0.00 0.00 89 1023.0
20260903011559 55 323 0.0 1.0 0.00 0.00 0.00 88 1023.0
20260903010048 55 208 0.0 2.0 0.00 0.00 0.00 87 1023.0
20260903004555 56 187 0.0 2.0 0.00 0.00 0.00 87 1023.0
20260903003103 56 195 0.0 1.0 0.00 0.00 0.00 86 1022.9
20260903001547 56 203 0.0 1.0 0.00 0.00 0.00 87 1022.9
20260903000059 56 202 0.0 0.0 0.00 0.00 0.00 87 1022.9
20260902234553 57 191 0.0 0.0 0.00 0.00 0.00 86 1023.2
20260902233139 57 198 0.0 0.0 0.00 0.00 0.00 85 1023.2
20260902231547 58 198 0.0 2.0 0.00 0.00 0.00 83 1023.2
20260902230111 59 156 0.0 0.0 0.00 0.00 0.00 82 1023.2
20260902224601 59 198 0.0 0.0 0.00 0.00 0.00 82 1023.1
20260902223051 59 198 0.0 2.0 0.00 0.00 0.00 81 1022.9
20260902221607 60 190 0.0 0.0 0.00 0.00 0.00 80 1022.8
20260902220105 60 188 0.0 1.0 0.00 0.00 0.00 79 1022.8
20260902214600 61 226 0.0 1.0 0.00 0.00 0.00 78 1022.6
20260902213056 62 253 0.0 1.0 0.00 0.00 0.00 77 1022.4
20260902211605 61 243 0.0 0.0 0.00 0.00 0.00 77 1022.2
20260902210104 62 240 0.0 1.0 0.00 0.00 0.00 76 1022.1
20260902204603 63 235 0.0 2.0 0.00 0.00 0.00 73 1022.1
20260902203110 63 241 0.0 1.0 0.00 0.00 0.00 72 1022.1
20260902201553 64 227 0.0 0.0 0.00 0.00 0.00 70 1022.0
20260902200105 66 226 0.0 0.0 0.00 0.00 0.00 66 1022.0
20260902194610 68 260 0.0 0.0 0.00 0.00 0.00 63 1021.9
20260902193050 70 260 0.0 1.0 0.00 0.00 0.00 61 1021.8
20260902191545 70 239 0.0 0.0 0.00 0.00 0.00 59 1021.7
20260902190057 71 252 0.0 0.0 0.00 0.00 0.00 56 1021.4
20260902184619 72 252 0.0 0.0 0.00 0.00 0.00 55 1021.3
20260902183118 73 252 0.0 0.0 0.00 0.00 0.00 54 1020.9
20260902181558 75 252 0.0 2.0 0.00 0.00 0.00 51 1020.9
20260902174607 78 231 0.0 3.0 0.00 0.00 0.00 48 1020.7
20260902173102 80 357 0.0 1.0 0.00 0.00 0.00 49 1020.7
20260902171605 82 66 0.0 1.0 0.00 0.00 0.00 45 1020.6
20260902170059 84 245 0.0 1.0 0.00 0.00 0.00 40 1020.5
20260902164556 83 251 0.0 6.0 0.00 0.00 0.00 42 1020.6
20260902163105 84 263 2.0 5.0 0.00 0.00 0.00 42 1020.5
20260902161544 84 312 0.0 2.0 0.00 0.00 0.00 42 1020.4
20260902160100 84 281 2.0 8.0 0.00 0.00 0.00 42 1020.5
20260902154556 84 251 1.0 6.0 0.00 0.00 0.00 43 1020.5
20260902153107 85 327 0.0 4.0 0.00 0.00 0.00 44 1020.5
20260902151606 84 307 0.0 2.0 0.00 0.00 0.00 43 1020.5
20260902144553 83 234 1.0 3.0 0.00 0.00 0.00 46 1020.7
20260902143058 82 281 1.0 5.0 0.00 0.00 0.00 45 1020.8
20260902141545 82 27 1.0 4.0 0.00 0.00 0.00 43 1020.8
20260902140104 83 240 1.0 4.0 0.00 0.00 0.00 45 1020.9
20260902134606 83 216 2.0 6.0 0.00 0.00 0.00 44 1020.9
20260902133101 84 164 3.0 7.0 0.00 0.00 0.00 42 1020.7
20260902131602 83 256 3.0 7.0 0.00 0.00 0.00 42 1020.7
20260902130105 82 248 2.0 6.0 0.00 0.00 0.00 46 1020.8
20260902124559 83 60 0.0 6.0 0.00 0.00 0.00 45 1020.9
20260902123056 82 243 0.0 5.0 0.00 0.00 0.00 47 1020.9
20260902121602 82 214 2.0 5.0 0.00 0.00 0.00 49 1021.0
20260902120104 80 55 0.0 3.0 0.00 0.00 0.00 50 1021.1
20260902114551 81 324 0.0 2.0 0.00 0.00 0.00 50 1021.3
20260902113057 79 51 1.0 5.0 0.00 0.00 0.00 51 1021.5
20260902111603 78 25 0.0 3.0 0.00 0.00 0.00 52 1021.5
20260902110106 78 86 1.0 3.0 0.00 0.00 0.00 51 1021.6
20260902104554 78 58 0.0 4.0 0.00 0.00 0.00 53 1021.7
20260902103101 77 103 1.0 4.0 0.00 0.00 0.00 54 1021.6
20260902101554 77 43 0.0 3.0 0.00 0.00 0.00 55 1021.6
20260902100103 77 37 0.0 3.0 0.00 0.00 0.00 55 1021.8
20260902094545 75 70 0.0 3.0 0.00 0.00 0.00 57 1021.9
20260902093053 75 318 0.0 2.0 0.00 0.00 0.00 59 1021.8